Home   Weather   Escuintla   Past weeks

Flag for Guatemala Past Weather in Escuintla, Guatemala — Yesterday and Last 2 Weeks

Now
72 °F

Passing clouds.


Feels Like: 76 °F
Forecast: 68 / 86 °F
Wind: 14 mph from South

Location: Guatemala Aeropuertola Aurora

Current Time: Feb 24, 2017 at 11:57:31 am

Latest Report: Feb 24, 2017 at 11:00 am


Visibility: N/A

Pressure: 30.24 "Hg

Humidity: 61%

Dew Point: 57 °F

Location of EscuintlaLocation

Past Weather in Escuintla — Graph

°F

Escuintla Temperature Yesterday

Maximum temperature yesterday: 77 °F (at 12:00 pm)
Minimum temperature yesterday: 59 °F (at 7:00 am)
Average temperature yesterday: 67 °F

High & Low Weather Summary for the Past Weeks

 TemperatureHumidityPressure
High81 °F (Feb 21, 1:00 pm)100% (Feb 19, 8:00 am)30.45 "Hg (Feb 19, 8:00 am)
Low54 °F (Feb 12, 6:00 am)28% (Feb 13, 3:00 pm)30.09 "Hg (Feb 23, 4:00 pm)
Average66 °F75%30.28 "Hg
* Reported Feb 9 10:00 am — Feb 24 10:00 am, Escuintla, Weather by CustomWeather, © 2017

Note: Actual official high and low records may vary slightly from our data, if they occured in-between our weather recording intervals... More about our weather records

Advertising

Escuintla Weather History for the Previous 24 Hours

Scroll right to see more
 ConditionsComfort  
Time TempWeatherWind HumidityBarometerVisibility
10:00 am
Fri, Feb 24
68 °FScattered clouds.12 mph73%30.24 "HgN/A
9:00 am66 °FPartly sunny.9 mph78%30.18 "Hg5 mi
8:00 am63 °FPartly sunny.9 mph88%30.21 "Hg4 mi
7:00 am63 °FPartly sunny.9 mph83%30.18 "Hg5 mi
6:00 am63 °FOvercast.9 mph83%30.18 "Hg4 mi
5:00 am63 °FOvercast.7 mph83%30.15 "Hg4 mi
4:00 am63 °FFog.7 mph83%30.15 "Hg3 mi
3:00 am63 °FFog.7 mph88%30.15 "Hg3 mi
2:00 am63 °FPassing clouds.7 mph88%30.15 "Hg4 mi
1:00 am63 °FPassing clouds.9 mph88%30.18 "Hg4 mi
12:00 am61 °FPassing clouds.7 mph94%30.21 "Hg4 mi
11:00 pm
Thu, Feb 23
63 °FPassing clouds.7 mph88%30.21 "Hg4 mi
10:00 pm63 °FOvercast.9 mph94%30.21 "Hg4 mi
9:00 pm64 °FPassing clouds.12 mph88%30.21 "Hg4 mi
8:00 pm64 °FPassing clouds.7 mph88%30.18 "Hg4 mi
7:00 pm64 °FPassing clouds.14 mph88%30.15 "Hg4 mi
6:00 pm68 °FScattered clouds.14 mph83%30.12 "Hg4 mi
5:00 pm72 °FScattered clouds.16 mph65%30.12 "Hg4 mi
4:00 pm73 °FPassing clouds.16 mph65%30.09 "Hg5 mi
3:00 pm75 °FPassing clouds.18 mph57%30.12 "Hg5 mi
2:00 pm75 °FPassing clouds.16 mph61%30.12 "Hg5 mi
1:00 pm77 °FPassing clouds.7 mph54%30.15 "HgN/A
12:00 pm77 °FPassing clouds.14 mph51%30.18 "HgN/A
11:00 am73 °FPassing clouds.16 mph61%30.21 "HgN/A
Weather by CustomWeather, © 2017

See weather overviewHow to use our weather pages